User: anonymous   Login
Location: Montr�al
(45.5000°N, 73.5830°W)
Time: 01:46:16
(UTC-04:00)
Language:

Cosmos 1151 Rocket - Orbit

View from above orbital plane
View from above orbital plane
View from above satellite
View from above satellite

Ground track
Ground track

The orbit data is extracted from the following two-line orbital elements,

1 11672U 80005B   15141.93760747  .00000507  00000-0  53074-4 0  9990
2 11672 082.5170 073.9818 0015666 314.6133 045.3805 14.87593740910804
Epoch (UTC): 21 May 2015 22:30:09
Eccentricity: 0.0015666
inclination: 82.5170°
perigee height: 594 km
apogee height: 616 km
right ascension of ascending node: 73.9818°
argument of perigee: 314.6133°
revolutions per day: 14.87593740
mean anomaly at epoch: 45.3805°
orbit number at epoch: 91080

The dashed part of the orbit path shows where the satellite is in the earth's shadow,  

DLR